Location: Newark
(22.3060°N, 114.2134°E)
Time: 02:47:45
(UTC+00:00)

Vanguard 2 - Pass Details

Date: 07 August 2021
Orbit: 553 x 2937 km, 32.9° (Epoch: 27 September)

Event Time Altitude Azimuth Distance (km) Brightness Sun altitude
Rises 22:13:35 0° 302° (WNW) 2,727 10.0 2.7°
Reaches altitude 10° 22:15:49 10° 314° (NW) 1,896 9.3 3.2°
Maximum altitude 22:19:35 31° 19° (NNE) 1,168 9.0 4.0°
Drops below altitude 10° 22:24:32 10° 81° (E) 2,515 12.8 5.1°
Sets 22:27:57 0° 91° (E) 3,809 12.9 5.9°
